Weather reports worldwide

Advertisment
Cairnwell, United Kingdom (3072): temperature & dewpoint: 16.01.2020 00:00:00 - 22.01.2020 00:00:00 (GMT)Cairnwell, United Kingdom (3072): wind speed & gusts: 16.01.2020 00:00:00 - 22.01.2020 00:00:00 (GMT)Cairnwell, United Kingdom (3072): wind direction: 16.01.2020 00:00:00 - 22.01.2020 00:00:00 (GMT)
Date & Time tt [°C] td [°C] ff [km/h] ff [kn] fx [km/h] fx [kn] dd
22.01.2020 00:00:00 4,8 4,8 37 20 52 28 WNW
21.01.2020 23:00:00 4,7 4,7 24 13 48 26 W
21.01.2020 22:00:00 4,8 4,8 28 15 55 30 W
21.01.2020 21:00:00 4,6 4,6 34 18 55 30 W
21.01.2020 20:00:00 4,5 4,5 28 15 52 28 W
21.01.2020 19:00:00 4,4 4,4 29 16 59 32 WNW
21.01.2020 18:00:00 4,4 4,4 26 14 48 26 W
21.01.2020 17:00:00 4,6 4,6 24 13 46 25 WNW
21.01.2020 16:00:00 4,8 4,8 39 21 65 35 W
21.01.2020 15:00:00 4,9 4,9 52 28 68 37 W
21.01.2020 14:00:00 4,7 4,7 61 33 94 51 W
21.01.2020 13:00:00 4,7 4,7 70 38 87 47 W
21.01.2020 12:00:00 5,1 4,4 34 18 72 39 W
21.01.2020 11:00:00 4,9 4,8 41 22 63 34 W
21.01.2020 10:00:00 4,8 4,8 48 26 65 35 W
21.01.2020 09:00:00 3,8 3,8 44 24 50 27 WSW
21.01.2020 08:00:00 3,4 3,4 22 12 46 25 SW
21.01.2020 07:00:00 4,1 4,1 35 19 54 29 W
21.01.2020 06:00:00 3,9 3,9 37 20 55 30 W
21.01.2020 05:00:00 3,6 3,6 34 18 61 33 W
21.01.2020 04:00:00 3,6 3,6 44 24 55 30 W
21.01.2020 03:00:00 3,2 3,2 37 20 54 29 WSW
21.01.2020 02:00:00 2,9 2,9 39 21 55 30 WSW
21.01.2020 01:00:00 2,8 2,8 35 19 57 31 SW
21.01.2020 00:00:00 2,8 2,8 50 27 78 42 W
20.01.2020 23:00:00 2,7 2,7 57 31 87 47 W
20.01.2020 22:00:00 2,2 2,2 29 16 80 43 WSW
20.01.2020 21:00:00 2,1 2,1 44 24 67 36 W
20.01.2020 20:00:00 2,1 1,9 9 5 - - SSE
20.01.2020 19:00:00 1,9 1,8 34 18 70 38 WSW
20.01.2020 18:00:00 2,1 1,3 50 27 67 36 WSW
20.01.2020 17:00:00 2,1 1,0 34 18 63 34 W
20.01.2020 16:00:00 2,9 0,5 39 21 89 48 W
20.01.2020 15:00:00 7,3 -3,2 70 38 89 48 W
20.01.2020 14:00:00 2,8 -0,7 31 17 72 39 WSW
20.01.2020 13:00:00 2,3 0,5 41 22 81 44 W
20.01.2020 12:00:00 1,6 1,6 63 34 78 42 WSW
20.01.2020 11:00:00 2,6 0,3 61 33 83 45 W
20.01.2020 10:00:00 2,0 0,9 46 25 63 34 WSW
20.01.2020 09:00:00 1,5 1,5 34 18 50 27 WSW
20.01.2020 08:00:00 1,1 1,1 15 8 55 30 WNW
20.01.2020 07:00:00 1,9 1,9 35 19 67 36 WNW
20.01.2020 06:00:00 3,0 2,2 70 38 94 51 WNW
20.01.2020 05:00:00 3,3 3,3 48 26 67 36 W
20.01.2020 04:00:00 1,9 1,9 37 20 55 30 W
20.01.2020 03:00:00 1,0 1,0 28 15 48 26 WSW
20.01.2020 02:00:00 1,5 0,8 37 20 70 38 WSW
20.01.2020 01:00:00 0,9 0,8 34 18 54 29 WSW
20.01.2020 00:00:00 1,3 0,8 26 14 48 26 SW
19.01.2020 23:00:00 0,6 0,4 21 11 52 28 S
19.01.2020 22:00:00 1,2 0,1 9 5 91 49 S
19.01.2020 21:00:00 2,6 -1,2 50 27 96 52 W
19.01.2020 20:00:00 4,4 -2,7 34 18 67 36 W
19.01.2020 19:00:00 1,9 -3,7 31 17 57 31 W
19.01.2020 18:00:00 1,0 -2,9 57 31 96 52 WSW
19.01.2020 17:00:00 1,1 -3,1 57 31 85 46 WSW
19.01.2020 16:00:00 0,3 -3,3 67 36 109 59 WSW
19.01.2020 15:00:00 -0,4 -4,0 50 27 72 39 WSW
19.01.2020 14:00:00 -0,9 -3,5 55 30 93 50 WSW
19.01.2020 13:00:00 -0,6 -3,3 55 30 70 38 WSW
19.01.2020 12:00:00 -1,1 -2,3 46 25 72 39 SW
19.01.2020 11:00:00 -1,2 -1,6 28 15 48 26 WSW
19.01.2020 10:00:00 -1,5 -1,5 13 7 50 27 SW
19.01.2020 09:00:00 -1,4 -1,4 15 8 - - SW
19.01.2020 08:00:00 -1,2 -2,8 18 10 48 26 SW
19.01.2020 07:00:00 -0,7 -2,9 31 17 72 39 WNW
19.01.2020 06:00:00 -1,5 -2,9 57 31 83 45 WNW
19.01.2020 05:00:00 -2,1 -2,9 63 34 85 46 WNW
19.01.2020 04:00:00 -1,6 -2,8 65 35 87 47 WNW
19.01.2020 03:00:00 -1,8 -3,5 48 26 57 31 WNW
19.01.2020 02:00:00 -1,8 -2,9 41 22 67 36 WNW
19.01.2020 01:00:00 -1,9 -3,2 21 11 67 36 W
19.01.2020 00:00:00 -2,3 -3,1 35 19 46 25 NW
18.01.2020 23:00:00 -2,7 -3,3 37 20 65 35 NW
18.01.2020 22:00:00 -2,8 -2,9 44 24 55 30 NW
18.01.2020 21:00:00 -2,7 -2,7 39 21 65 35 WNW
18.01.2020 20:00:00 -2,4 -3,1 52 28 78 42 NW
18.01.2020 19:00:00 -2,0 -2,9 63 34 81 44 NW
18.01.2020 18:00:00 -2,2 -2,9 65 35 80 43 NW
18.01.2020 17:00:00 -2,4 -3,1 67 36 83 45 NW
18.01.2020 16:00:00 -2,2 -2,9 68 37 85 46 NW
18.01.2020 15:00:00 -2,2 -2,8 72 39 85 46 NW
18.01.2020 14:00:00 -2,1 -3,1 72 39 104 56 NW
18.01.2020 13:00:00 -3,0 -3,6 78 42 96 52 NW
18.01.2020 12:00:00 -3,1 -3,1 72 39 98 53 WNW
18.01.2020 11:00:00 -3,3 -3,3 63 34 85 46 WNW
18.01.2020 10:00:00 -3,2 -3,2 54 29 76 41 WNW
18.01.2020 09:00:00 -3,3 -3,4 57 31 72 39 WNW
18.01.2020 08:00:00 -3,4 -3,5 59 32 80 43 WNW
18.01.2020 07:00:00 -3,2 -3,2 52 28 81 44 WNW
18.01.2020 06:00:00 -3,4 -3,4 48 26 80 43 WNW
18.01.2020 05:00:00 -3,5 -3,6 55 30 83 45 WNW
18.01.2020 04:00:00 -3,6 -3,6 63 34 93 50 WNW
18.01.2020 03:00:00 -3,6 -3,7 76 41 87 47 WNW
18.01.2020 02:00:00 -3,3 -3,3 55 30 85 46 WNW
18.01.2020 01:00:00 -3,2 -3,4 67 36 91 49 WNW
18.01.2020 00:00:00 -3,0 -3,2 81 44 94 51 WNW
17.01.2020 23:00:00 -2,4 -3,1 68 37 93 50 WNW
17.01.2020 22:00:00 -2,4 -2,9 46 25 87 47 W
17.01.2020 21:00:00 -2,3 -2,8 57 31 96 52 WNW
17.01.2020 20:00:00 -2,6 -2,8 37 20 81 44 WNW
17.01.2020 19:00:00 -2,1 -2,1 50 27 72 39 WNW
17.01.2020 18:00:00 -1,8 -1,8 22 12 65 35 NW
17.01.2020 17:00:00 -1,8 -1,8 28 15 63 34 W
17.01.2020 16:00:00 -1,8 -1,8 26 14 65 35 W
17.01.2020 15:00:00 -1,7 -2,1 35 19 67 36 W
17.01.2020 14:00:00 -1,4 -1,4 37 20 89 48 WSW
17.01.2020 13:00:00 -1,4 -1,4 67 36 85 46 WSW
17.01.2020 12:00:00 -1,7 -1,7 54 29 68 37 WSW
17.01.2020 11:00:00 -2,1 -2,1 52 28 76 41 SW
17.01.2020 10:00:00 -2,4 -2,4 59 32 72 39 SW
17.01.2020 09:00:00 -2,3 -2,3 52 28 61 33 SSW
17.01.2020 08:00:00 -2,1 -2,1 46 25 65 35 SSW
17.01.2020 07:00:00 -2,0 -2,0 52 28 65 35 SW
17.01.2020 06:00:00 -1,9 -1,9 50 27 80 43 SSW
17.01.2020 05:00:00 -1,7 -1,7 55 30 74 40 SW
17.01.2020 04:00:00 -1,5 -1,5 48 26 83 45 SSW
17.01.2020 03:00:00 -1,4 -1,4 65 35 87 47 SW
17.01.2020 02:00:00 -0,7 -0,7 78 42 94 51 WSW
17.01.2020 01:00:00 -0,4 -0,4 68 37 93 50 WSW
17.01.2020 00:00:00 -0,1 -0,1 63 34 83 45 SW
16.01.2020 23:00:00 0,2 0,2 61 33 81 44 SW
16.01.2020 22:00:00 0,4 0,4 57 31 78 42 WSW
16.01.2020 21:00:00 1,6 1,6 68 37 93 50 WSW
16.01.2020 20:00:00 3,4 3,4 76 41 94 51 SSW
16.01.2020 19:00:00 2,5 2,5 61 33 109 59 S
16.01.2020 18:00:00 1,3 1,3 81 44 131 71 SSE
16.01.2020 17:00:00 -0,1 -0,1 91 49 122 66 SE
16.01.2020 16:00:00 -0,1 -0,1 81 44 115 62 SE
16.01.2020 15:00:00 0,1 0,1 91 49 113 61 SE
16.01.2020 14:00:00 0,4 0,4 76 41 94 51 SSE
16.01.2020 13:00:00 0,6 0,6 65 35 87 47 S
16.01.2020 12:00:00 1,0 1,0 81 44 104 56 S
16.01.2020 11:00:00 -0,1 -0,1 91 49 109 59 S
16.01.2020 10:00:00 -0,1 -0,1 80 43 94 51 S
16.01.2020 09:00:00 -0,2 -0,2 68 37 93 50 S
16.01.2020 08:00:00 -0,4 -0,4 52 28 78 42 S
16.01.2020 07:00:00 -0,7 -0,7 50 27 81 44 S
16.01.2020 06:00:00 -1,1 -1,1 61 33 89 48 SW
16.01.2020 05:00:00 -1,5 -1,5 65 35 87 47 WSW
16.01.2020 04:00:00 -1,7 -1,7 68 37 98 53 SW
16.01.2020 03:00:00 -1,8 -1,8 61 33 89 48 SW
16.01.2020 02:00:00 -1,7 -1,7 63 34 102 55 SW
16.01.2020 01:00:00 -1,6 -1,6 74 40 113 61 WSW
16.01.2020 00:00:00 -1,5 -1,5 89 48 124 67 WSW

tt = temperature
td = dewpoint
ff = wind speed
fx = gusts
dd = wind direction

Next stations